Location: Mauna Kea VIS
(19.7591°N, 155.4561°W)
Time: 23:59:54
(UTC-10:00)

Daily predictions for brighter satellites

Satellite Brightness Start Highest point End
(mag) Time Altitude Azimuth Time Altitude Azimuth Time Altitude Azimuth
CZ-4 R/B 3.1 18:21:13 10° S 18:24:51 38° W 18:28:28 10° NNW
COSMOS 2441 4.4 18:21:33 10° SSE 18:26:24 78° ENE 18:31:16 10° N
Cosmos 2278 Rocket 3.8 18:25:30 10° NE 18:28:05 13° ENE 18:30:38 10° E
YAOGAN 1 3.5 18:27:22 10° S 18:31:35 55° WSW 18:35:50 10° NNW
MONITOR-E 4.1 18:28:28 10° SSE 18:31:38 79° E 18:34:47 10° N
NOSS 0 Rocket 4.5 18:26:12 10° SSW 18:32:21 63° WNW 18:38:30 10° N
H-2A R/B (2) 4.2 18:25:18 10° SW 18:34:13 19° S 18:37:56 10° SE
Hubble Space Telescope 1.8 18:31:36 10° NW 18:35:18 31° NNE 18:38:55 10° ENE
Cosmos 304 Rocket 4.1 18:34:05 10° S 18:38:38 44° ESE 18:43:11 10° NNE
Cosmos 1844 4.3 18:33:41 10° N 18:38:52 34° ENE 18:44:02 10° SE
Cosmos 1300 3.3 18:36:29 10° NNE 18:39:58 33° E 18:43:26 10° SSE
COSMO-SKYMED 1 3.8 18:36:59 10° N 18:41:05 43° WNW 18:45:11 10° SSW
Cosmos 2237 Rocket 2.7 18:36:29 10° SSW 18:42:00 62° WNW 18:47:33 10° N
Cosmos 540 Rocket 4.0 18:38:48 10° SSW 18:43:53 62° WNW 18:49:00 10° N
Cosmos 2228 Rocket 3.6 18:39:48 10° NNW 18:44:10 64° W 18:48:34 10° S
SL-16 R/B 2.4 18:40:37 10° S 18:46:01 49° ESE 18:51:26 10° NNE
Cosmos 1726 2.4 18:43:09 10° N 18:46:45 44° E 18:50:21 10° SSE
Helios 1B rocket 4.1 18:46:19 13° ENE 18:47:43 15° E 18:50:07 10° SE
Cosmos 1461 3.1 18:43:51 10° S 18:48:06 54° ESE 18:52:12 10° NE
CZ-3C R/B 4.0 18:42:56 10° SW 18:52:01 17° S 18:56:02 10° SSE
Elektron 3 4.3 18:56:16 10° N 18:59:11 34° ENE 19:01:49 11° SE
SJ-6B 3.4 18:55:54 10° SE 18:59:32 36° ENE 19:03:14 10° N
Cosmos 2058 3.4 18:56:13 10° SSW 19:00:18 62° W 19:04:21 10° N
FAST Rocket 4.3 19:01:19 10° S 19:05:16 68° E 19:07:37 14° NNE
SEDSat Delta rocket 4.3 19:00:33 10° NW 19:05:18 31° NNE 19:07:27 22° ENE
GPS 2-04 Rocket1 3.0 19:01:08 10° NW 19:05:22 55° NNE 19:07:50 22° E
Spot 2 Rocket 4.5 19:03:01 10° SE 19:06:58 23° ENE 19:10:54 10° NNE
Cosmos 1125 Rocket 3.6 19:02:32 10° N 19:07:31 48° ENE 19:12:30 10° SSE
USA 215 4.0 19:03:51 16° E 19:07:59 29° NE 19:13:27 10° NNW
Cosmos 2279 Rocket 3.9 19:02:15 10° N 19:08:24 63° E 19:14:32 10° SSE
Cosmos 1538 Rocket 3.9 19:07:05 10° S 19:12:15 71° ESE 19:17:26 10° NNE
Aureole 2 Rocket 4.2 19:09:23 10° SW 19:12:22 32° WNW 19:15:38 10° N
ATLAS 2A CENTAUR R/B 1.4 19:10:47 10° SW 19:12:45 42° SSE 19:14:01 29° E
FREGAT/IRIS 2.6 19:10:31 10° SSE 19:13:29 56° ENE 19:16:29 10° N
Cosmos 1184 Rocket 3.1 19:12:15 10° SSE 19:15:26 42° E 19:15:46 41° ENE
Nadezhda 4 Rocket 3.9 19:10:27 10° S 19:16:33 65° E 19:22:44 10° NNE
Cosmos 1703 3.5 19:14:13 10° SSW 19:18:05 67° W 19:21:57 10° N
Orbus 7S 3.9 19:17:29 10° SW 19:19:50 30° SSE 19:20:09 29° SE
ALOS 2.7 19:16:56 10° SE 19:21:11 37° ENE 19:25:27 10° N
BREEZE-M DEB (TANK) 2.7 19:19:12 10° SSW 19:21:59 61° SE 19:24:46 28° NE
Cosmos 1805 Rocket 4.1 19:19:06 10° SSW 19:23:26 59° W 19:27:49 10° N
GPS 2-14 Rocket1 2.5 19:20:23 10° W 19:24:25 77° N 19:25:20 50° ENE
Cosmos 2180 Rocket 4.4 19:18:30 10° N 19:24:38 72° E 19:30:51 10° S
Cosmos 1356 Rocket 3.3 19:21:06 10° S 19:25:08 82° W 19:28:24 15° N
GPS 2-17 Rocket1 3.2 19:22:54 10° WSW 19:27:16 59° SSE 19:28:37 40° ESE
Cosmos 1844 Rocket 3.5 19:22:22 10° NNW 19:27:49 52° WSW 19:33:14 10° S
Abrixas rocket 2.5 19:28:03 10° NW 19:30:45 53° NNW 19:30:45 53° NNW
Tiangong 1 3.2 19:29:45 10° S 19:30:50 17° S 19:30:50 17° S
Cosmos 1092 Rocket 3.9 19:26:49 10° S 19:33:00 63° E 19:38:53 12° NNE
Fermi 4.5 19:31:48 10° WNW 19:35:35 38° N 19:35:35 38° N
FENGYUN 3A 3.5 19:37:00 10° SSE 19:42:16 65° ENE 19:47:33 10° N
Atlas Centaur 2 1.3 19:40:10 10° WNW 19:44:11 66° NNW 19:44:11 66° NNW
Iridium 4 Rocket 3.2 19:39:54 10° S 19:44:58 83° E 19:46:35 42° N
USA 229 DEB 3.6 19:38:29 10° SSW 19:45:19 86° WNW 19:49:06 29° NNE
USA 229 3.6 19:38:35 10° SSW 19:45:25 87° WNW 19:49:08 30° NNE
Sich 1 4.1 19:45:00 10° SSW 19:49:13 45° W 19:52:57 13° NNW
Cosmos 1603 3.6 19:44:25 10° S 19:49:59 64° ESE 19:50:26 62° E
GPS 2-18 Rocket1 4.0 19:46:28 10° W 19:49:59 42° SSW 19:49:59 42° SSW
Cosmos 1633 Rocket 3.9 19:46:53 10° SSW 19:51:09 50° W 19:53:56 20° NNW
Palapa 6 Rocket 4.2 19:44:22 10° WSW 19:51:11 82° SSE 19:53:25 50° E
Cosmos 1626 4.3 19:49:22 10° SW 19:52:32 26° W 19:55:28 11° NNW
Resurs 01 Rocket 1.8 19:49:41 10° SSE 19:53:18 59° S 19:53:18 59° S
Cosmos 2195 Rocket 4.3 19:56:03 10° S 20:02:05 71° E 20:02:05 71° E
OAO 3 Rocket 4.3 19:59:04 10° NW 20:02:03 34° NNW 20:02:03 34° NNW
Aureole 1 Rocket 4.0 20:01:20 10° SSW 20:05:19 48° WNW 20:06:27 40° NNW
GPS 2-15 Rocket1 3.5 20:01:07 10° W 20:05:11 62° W 20:05:11 62° W
Cosmos 2278 Rocket 2.9 20:06:48 10° NNW 20:12:16 52° WSW 20:17:44 10° S
Hubble Space Telescope 2.8 20:12:36 10° WNW 20:14:19 24° WNW 20:14:19 24° WNW
H-2A ROCKET BODY 3.4 20:07:00 10° W 20:20:58 39° NNW 20:21:07 39° NNW
Milstar 3 3.0 20:21:37 10° WNW 20:28:26 83° NNE 20:28:36 82° NE
Intelsat 5-1 Rocket 4.4 20:41:21 10° WNW 20:42:40 24° WNW 20:42:40 24° WNW
USA 215 3.9 20:51:18 50° WSW 20:51:18 50° WSW 20:56:59 10° NW
